Middle River, MD

10:02 AM EST on December 05, 2016 (GMT -0500)
Martin State

Weather History for KMTN - April, 2013

Change the Weather History Date:

Monday, April 1, 2013

  Actual Average Record
Temperature  
Mean Temperature 52 °F -  
Max Temperature 64 °F 56 °F 80 °F (2016)
Min Temperature 39 °F 39 °F 28 °F (2003)
Degree Days  
Heating Degree Days 14    
Growing Degree Days 2 (Base 50)    
Moisture  
Dew Point 37 °F    
Average Humidity 71    
Maximum Humidity 100    
Minimum Humidity 33    
Precipitation  
Precipitation 0.00 in - - ()
Sea Level Pressure  
Sea Level Pressure 29.82 in    
Wind  
Wind Speed 7 mph (WSW)    
Max Wind Speed 24 mph    
Max Gust Speed 34 mph    
Visibility 8 miles    
Events      
Averages and records for this station are not official NWS values.
T = Trace of Precipitation, MM = Missing Value Source: NWS Daily Summary

Daily Weather History Graph

Daily Weather History Graph

Search for Another Location

Airport or City:

Trip Planner

Search our weather history database for the weather conditions in past years. The results will help you decide how hot, cold, wet, or windy it might be!

Date:

Astronomy

Apr. 01, 2013 Rise Set
Actual Time 6:49 AM EDT 7:29 PM EDT
Civil Twilight 6:22 AM EDT 7:56 PM EDT
Nautical Twilight 5:50 AM EDT 8:28 PM EDT
Astronomical Twilight 5:17 AM EDT 9:01 PM EDT
Moon 12:34 AM EDT (4/1) 10:35 AM EDT (4/1)
Length of Visible Light 13h 34m
Length of Day
12h 40m
Waning Gibbous, 67% of the Moon is Illuminated
Apr 1
Waning Gibbous
Apr 3
Last Quarter
Apr 10
New
Apr 18
First Quarter
Apr 25
Full

Hourly Weather History & Observations

Time (EDT) Temp. Windchill Dew Point Humidity Pressure Visibility Wind Dir Wind Speed Gust Speed Precip Events Conditions
12:00 AM 50.0 °F - 46.4 °F 87% 29.78 in 7.0 mi SSW 4.6 mph - N/A   Scattered Clouds
12:21 AM 48.2 °F - 46.4 °F 93% 29.79 in 7.0 mi SSW 4.6 mph - N/A   Clear
1:00 AM 46.4 °F 45.2 °F 44.6 °F 93% 29.79 in 5.0 mi South 3.5 mph - N/A   Clear
1:21 AM 46.4 °F - 46.4 °F 100% 29.78 in 5.0 mi Calm Calm - N/A   Clear
1:42 AM 46.4 °F - 46.4 °F 100% 29.78 in 5.0 mi Calm Calm - N/A   Scattered Clouds
2:00 AM 46.4 °F 45.2 °F 46.4 °F 100% 29.79 in 5.0 mi SW 3.5 mph - N/A   Scattered Clouds
2:21 AM 44.6 °F - 42.8 °F 93% 29.78 in 4.0 mi Calm Calm - N/A   Clear
2:42 AM 44.6 °F 42.2 °F 44.6 °F 100% 29.78 in 4.0 mi SSW 4.6 mph - N/A   Clear
3:00 AM 46.4 °F 44.3 °F 46.4 °F 100% 29.78 in 5.0 mi WSW 4.6 mph - N/A   Clear
3:21 AM 46.4 °F 44.3 °F 44.6 °F 93% 29.78 in 4.0 mi SW 4.6 mph - N/A   Clear
3:42 AM 46.4 °F 44.3 °F 44.6 °F 93% 29.78 in 4.0 mi WSW 4.6 mph - N/A   Clear
4:00 AM 44.6 °F 43.1 °F 42.8 °F 93% 29.78 in 3.0 mi West 3.5 mph - N/A   Clear
4:21 AM 41.0 °F - 41.0 °F 100% 29.78 in 1.2 mi Calm Calm - N/A   Mist
4:42 AM 44.6 °F 40.7 °F 44.6 °F 100% 29.78 in 10.0 mi West 6.9 mph - N/A   Clear
5:00 AM 42.8 °F 37.5 °F 42.8 °F 100% 29.78 in 10.0 mi West 9.2 mph - N/A   Clear
5:21 AM 46.4 °F 43.5 °F 42.8 °F 87% 29.78 in 10.0 mi SW 5.8 mph - N/A   Clear
5:33 AM 46.4 °F 45.2 °F 42.8 °F 87% 29.78 in 10.0 mi SSW 3.5 mph - N/A   Clear
6:45 AM 39.2 °F - 39.2 °F 100% 29.77 in 5.0 mi Calm Calm - N/A   Clear
7:45 AM 41.0 °F 39.0 °F 41.0 °F 100% 29.78 in 5.0 mi West 3.5 mph - N/A   Clear
8:54 AM 50.0 °F - 46.4 °F 87% 29.78 in 7.0 mi SSW 5.8 mph - N/A   Scattered Clouds
10:54 AM 59.0 °F - 41.0 °F 51% 29.76 in 10.0 mi SW 10.4 mph - N/A   Partly Cloudy
11:45 AM 62.6 °F - 39.2 °F 42% 29.76 in 10.0 mi WSW 17.3 mph 28.8 mph N/A   Scattered Clouds
12:45 PM 64.4 °F - 39.2 °F 40% 29.74 in 10.0 mi West 17.3 mph 24.2 mph N/A   Scattered Clouds
1:50 PM 64.4 °F - 35.6 °F 34% 29.72 in 10.0 mi West 19.6 mph 25.3 mph N/A   Mostly Cloudy
2:45 PM 60.8 °F - 39.2 °F 45% 29.74 in 10.0 mi WNW 20.7 mph 31.1 mph N/A   Mostly Cloudy
4:55 PM 57.2 °F - 32.0 °F 38% 29.78 in 10.0 mi West 20.7 mph 26.5 mph N/A   Scattered Clouds
5:55 PM 53.6 °F - 30.2 °F 41% 29.82 in 10.0 mi NW 19.6 mph 34.5 mph N/A   Scattered Clouds
6:55 PM 50.0 °F - 24.8 °F 37% 29.87 in 10.0 mi West 24.2 mph 34.5 mph N/A   Partly Cloudy
7:55 PM 46.4 °F 39.2 °F 21.2 °F 37% 29.90 in 10.0 mi West 18.4 mph 34.5 mph N/A   Partly Cloudy
8:55 PM 46.4 °F 40.1 °F 41.0 °F 81% 29.93 in 10.0 mi WNW 15.0 mph 24.2 mph N/A   Partly Cloudy
9:45 PM 44.6 °F 39.7 °F 21.2 °F 39% 29.96 in 10.0 mi WNW 9.2 mph - N/A   Partly Cloudy
10:24 PM 42.8 °F 36.2 °F 19.4 °F 39% 29.97 in 10.0 mi WNW 12.7 mph 17.3 mph N/A   Clear
10:45 PM 42.8 °F 37.5 °F 17.6 °F 36% 29.97 in 10.0 mi WNW 9.2 mph - N/A   Clear
11:03 PM 42.8 °F 38.6 °F 17.6 °F 36% 29.98 in 10.0 mi NW 6.9 mph - N/A   Clear
11:24 PM 42.8 °F 38.6 °F 15.8 °F 34% 29.98 in 10.0 mi WNW 6.9 mph - N/A   Clear
11:45 PM 41.0 °F 36.4 °F 14.0 °F 33% 29.99 in 10.0 mi WNW 6.9 mph - N/A   Clear